Location: Alpha Ridge Park
(39.3209°N, 76.9128°W)
Time: 22:52:49
(UTC-04:00)

Transit 2A - Pass Details

Date: 29 May 2019
Orbit: 593 x 966 km, 66.7° (Epoch: 18 June)

Event Time Altitude Azimuth Distance (km) Brightness Sun altitude
Rises 16:57:45 0° 322° (NW) 3,485 9.8 37.8°
Reaches altitude 10° 17:00:34 10° 313° (NW) 2,485 9.3 37.3°
Maximum altitude 17:05:36 33° 252° (WSW) 1,321 9.3 36.3°
Drops below altitude 10° 17:10:10 10° 189° (S) 2,245 8.6 35.4°
Sets 17:12:36 0° 180° (S) 3,102 9.1 35.0°
